(228064) = 2008 LU7

Discovered at Needville on 2008-06-08 by J. Dellinger.

Orbit

Orbit type: Main Belt

Note: WebGL enabled browser required.

epoch2023-09-13.0
epoch JD2460200.5
perihelion date2023-04-01.66129
perihelion JD2460036.16129
argument of perihelion (°)176.46012
ascending node (°)106.16318
inclination (°)16.46328
eccentricity0.1179649
perihelion distance (AU)2.5069821
Tisserand w.r.t. Jupiter3.2
ΔV w.r.t. Earth (km/sec)11.2
semimajor axis (AU)2.8422703
mean anomaly (°)33.80225
mean daily motion (°/day)0.20568650
aphelion distance (AU)3.178
period (years)4.79
P-vector [x]0.22097135
P-vector [y]-0.90161849
P-vector [z]-0.37182759
Q-vector [x]0.93652521
Q-vector [y]0.30257071
Q-vector [z]-0.17712002
absolute magnitude15.68
phase slope0.15
uncertainty0
referenceMPEC 2024-A34
observations used487
oppositions18
arc length (days)10243
first opposition used1995
last opposition used2023
residual rms (arc-secs)0.76
perturbers coarse indicatorM-v
perturbers precise indicator003Ek
first observation date used1995-08-31.0
last observation date used2023-09-16.0
computer nameMPCLINUX
JD of orbit computation2456966.784386
perihelion JD uncertainty (days)1.7791E-04
argument of perihelion uncertainty (°)4.6694E-05
ascending node uncertainty (°)3.0326E-05
inclination uncertainty (°)4.8831E-06
eccentricity uncertainty 5.4279E-08
perihelion distance uncertainty (AU)1.4336E-07
Minimum Orbit Intersection Distances (in AU)
for orbit epoch: 2460200.5, reference: E2024-A34
Mercury2.0524
Venus1.7801
Earth1.49007
Mars1.07314
Jupiter1.98485
Saturn5.88371
Uranus15.4575
Neptune26.8574

Observations

496 total observations over interval: 1995 08 31.42973 – 2023 09 16.314773
These data are available for download (format description).

Date (UT) J2000 RA J2000 Dec Magn Location Ref
1995 08 31.42973 03 12 26.50 -02 54 58.1 21.1 V 691 – Steward Observatory, Kitt Peak-Spacewatch MPS 251655
1995 08 31.45319 03 12 26.90 -02 55 04.3   691 – Steward Observatory, Kitt Peak-Spacewatch MPS 251655
1995 08 31.47537 03 12 27.28 -02 55 10.2   691 – Steward Observatory, Kitt Peak-Spacewatch MPS 251655
2002 02 03.32877 08 31 07.81 +27 40 29.9 20.3   644 – Palomar Mountain/NEAT MPS 251655
2002 02 03.33924 08 31 07.19 +27 40 33.9 20.2   644 – Palomar Mountain/NEAT MPS 251655
2002 02 03.35073 08 31 06.55 +27 40 38.3 20.5   644 – Palomar Mountain/NEAT MPS 251655
2003 03 31.333940 14 52 08.469 +08 51 50.34 19.93 V 645 – Apache Point-Sloan Digital Sky Survey MPS 251655
2003 03 31.337412 14 52 08.367 +08 51 51.71 20.66   645 – Apache Point-Sloan Digital Sky Survey MPS 251655
2003 04 25.26493 14 34 57.24 +10 58 44.3 18.0 C 704 – Lincoln Laboratory ETS, New Mexico MPS 290288
2003 04 25.27783 14 34 56.72 +10 58 47.0 18.8 C 704 – Lincoln Laboratory ETS, New Mexico MPS 290288
2003 04 25.29032 14 34 56.06 +10 58 51.4 19.0 C 704 – Lincoln Laboratory ETS, New Mexico MPS 290288
2003 04 25.348280 14 34 52.932 +10 59 00.46 19.63 V 645 – Apache Point-Sloan Digital Sky Survey MPS 251655
2003 04 25.351752 14 34 52.751 +10 59 01.07 20.38   645 – Apache Point-Sloan Digital Sky Survey MPS 251655
2004 08 21.77414 23 06 49.98 -27 13 32.5 18.7 R E12 – Siding Spring Survey MPS 251701
2004 08 21.78350 23 06 49.54 -27 13 38.1 19.0 R E12 – Siding Spring Survey MPS 251701
2004 08 21.79289 23 06 49.16 -27 13 43.3 18.9 R E12 – Siding Spring Survey MPS 251701
2004 08 21.80224 23 06 48.78 -27 13 49.7 19.3 R E12 – Siding Spring Survey MPS 251701
2007 01 17.32159 10 06 18.17 +24 15 41.3   291 – LPL/Spacewatch II MPS 251655
2007 01 17.32635 10 06 18.00 +24 15 43.9   291 – LPL/Spacewatch II MPS 251655
2007 01 17.33051 10 06 17.87 +24 15 46.1   291 – LPL/Spacewatch II MPS 251655
2007 02 09.25354 09 49 46.05 +27 38 47.8 20.1 V 703 – Catalina Sky Survey MPS 251655
2007 02 09.26000 09 49 45.94 +27 38 51.6 19.8 V 703 – Catalina Sky Survey MPS 251655
2007 02 09.26649 09 49 45.51 +27 38 56.0 21.3 V 703 – Catalina Sky Survey MPS 251655
2007 02 09.27295 09 49 45.12 +27 38 59.6 20.3 V 703 – Catalina Sky Survey MPS 251655
2008 02 24.46251 16 03 20.41 -03 02 11.4 20.2 V G96 – Mt. Lemmon Survey MPS 251655
2008 02 24.47098 16 03 20.88 -03 02 09.9 20.0 V G96 – Mt. Lemmon Survey MPS 251655
2008 02 24.47911 16 03 21.27 -03 02 09.2 20.0 V G96 – Mt. Lemmon Survey MPS 251655
2008 02 24.48724 16 03 21.70 -03 02 08.5 20.1 V G96 – Mt. Lemmon Survey MPS 251655
2008 05 03.30533 16 09 56.97 +00 20 52.0 19.5   704 – Lincoln Laboratory ETS, New Mexico MPS 252103
2008 05 03.31588 16 09 56.43 +00 20 54.6 19.6   704 – Lincoln Laboratory ETS, New Mexico MPS 252103
2008 05 03.32644 16 09 56.04 +00 20 55.2 19.6   704 – Lincoln Laboratory ETS, New Mexico MPS 252103
2008 05 03.33696 16 09 55.61 +00 20 55.7 19.9   704 – Lincoln Laboratory ETS, New Mexico MPS 252103
2008 05 03.34748 16 09 55.00 +00 20 59.0 19.7   704 – Lincoln Laboratory ETS, New Mexico MPS 252103
2008 05 14.31192 16 01 00.33 +00 27 54.3 19.1 V 703 – Catalina Sky Survey MPS 251655
2008 05 14.31845 16 01 00.01 +00 27 52.9 19.2 V 703 – Catalina Sky Survey MPS 251655
2008 05 14.32495 16 00 59.61 +00 27 53.0 18.9 V 703 – Catalina Sky Survey MPS 251655
2008 05 14.33144 16 00 59.32 +00 27 51.8 18.7 V 703 – Catalina Sky Survey MPS 251655
2008 05 25.27290 15 51 09.69 +00 12 08.7 19.1   704 – Lincoln Laboratory ETS, New Mexico MPS 252103
2008 05 25.28269 15 51 09.11 +00 12 08.1 19.3   704 – Lincoln Laboratory ETS, New Mexico MPS 252103
2008 05 25.29246 15 51 08.57 +00 12 07.6 19.2   704 – Lincoln Laboratory ETS, New Mexico MPS 252103
2008 05 25.30226 15 51 07.96 +00 12 05.0 19.3   704 – Lincoln Laboratory ETS, New Mexico MPS 252103
2008 06 03.17455 15 43 23.22 -00 18 39.3 19.6 R 735 – George Observatory, Needville MPS 252103
2008 06 03.17997 15 43 22.95 -00 18 40.8 19.2 R 735 – George Observatory, Needville MPS 252103
2008 06 03.18537 15 43 22.69 -00 18 42.3 19.1 R 735 – George Observatory, Needville MPS 252103
2008 06 03.19079 15 43 22.45 -00 18 43.8 19.5 R 735 – George Observatory, Needville MPS 252103
2008 06 03.27711 15 43 17.99 -00 19 07.3 19.0   704 – Lincoln Laboratory ETS, New Mexico MPS 252103
2008 06 03.28732 15 43 17.49 -00 19 09.4 18.9   704 – Lincoln Laboratory ETS, New Mexico MPS 252103
2008 06 03.29746 15 43 17.05 -00 19 12.2 19.2   704 – Lincoln Laboratory ETS, New Mexico MPS 252103
2008 06 03.30767 15 43 16.44 -00 19 15.5 18.9   704 – Lincoln Laboratory ETS, New Mexico MPS 252103
2008 06 04.28537 15 42 28.11 -00 23 38.4 19.4 V 691 – Steward Observatory, Kitt Peak-Spacewatch MPC 63317
2008 06 04.30053 15 42 27.33 -00 23 42.6 19.4 V 691 – Steward Observatory, Kitt Peak-Spacewatch MPS 251462
2008 06 04.31569 15 42 26.56 -00 23 46.9 19.4 V 691 – Steward Observatory, Kitt Peak-Spacewatch MPS 251462
2008 06 05.14319 15 41 46.45 -00 27 39.0 19.3 R 735 – George Observatory, Needville MPS 252103
2008 06 05.15221 15 41 45.97 -00 27 42.1 19.0 R 735 – George Observatory, Needville MPS 252103
2008 06 05.20757 15 41 43.25 -00 27 57.7 19.3 R 735 – George Observatory, Needville MPS 252103
2008 06 08.18045 15 39 23.54 -00 43 01.1 19.6 V 691 – Steward Observatory, Kitt Peak-Spacewatch MPS 251462
2008 06 08.19307 15 39 22.95 -00 43 04.9 19.6 V 691 – Steward Observatory, Kitt Peak-Spacewatch MPS 251462
2008 06 08.20568 15 39 22.36 -00 43 09.4 19.5 V 691 – Steward Observatory, Kitt Peak-Spacewatch MPS 251462
2008 06 08.24263 15 39 20.54 -00 43 20.3 19.2 R 735 – George Observatory, Needville MPC 63317
2008 06 08.26421 15 39 19.54 -00 43 27.8 18.9 R 735 – George Observatory, Needville MPS 251462
2008 06 08.28479 15 39 18.54 -00 43 34.3 19.5 R 735 – George Observatory, Needville MPS 251462
2008 06 08.29200 15 39 18.18 -00 43 36.6 19.2 R 735 – George Observatory, Needville MPS 251462
2008 06 08.30620 15 39 17.52 -00 43 41.9 19.5 R 735 – George Observatory, Needville MPS 251462
2008 06 11.20015 15 37 10.39 -01 00 00.1 19.2 R 735 – George Observatory, Needville MPS 251655
2008 06 11.20456 15 37 10.21 -01 00 01.6 19.5 R 735 – George Observatory, Needville MPS 251655
2008 06 11.21028 15 37 09.97 -01 00 03.9 19.4 R 735 – George Observatory, Needville MPS 251655
2009 09 17.31831 00 42 58.46 -22 07 36.9 19.4 V 703 – Catalina Sky Survey MPS 295066
2009 09 17.32375 00 42 58.21 -22 07 38.4 19.9 V 703 – Catalina Sky Survey MPS 295066
2009 09 17.32926 00 42 57.99 -22 07 41.1 19.6 V 703 – Catalina Sky Survey MPS 295066
2009 09 17.33473 00 42 57.60 -22 07 43.3 18.9 V 703 – Catalina Sky Survey MPS 295066
2009 10 19.15803 00 18 24.20 -24 01 00.3 19.4 R 735 – George Observatory, Needville MPS 301972
2009 10 19.16641 00 18 23.80 -24 00 59.6 19.4 R 735 – George Observatory, Needville MPS 301972
2009 10 19.18591 00 18 23.03 -24 00 58.5 19.8 R 735 – George Observatory, Needville MPS 301972
2009 10 19.19522 00 18 22.64 -24 00 57.4 19.6 R 735 – George Observatory, Needville MPS 301972
2010 12 14.37339 05 44 04.41 +14 26 35.5 19.6 V G96 – Mt. Lemmon Survey MPS 362537
2010 12 14.37920 05 44 04.05 +14 26 36.3 19.5 V G96 – Mt. Lemmon Survey MPS 362537
2010 12 14.38499 05 44 03.69 +14 26 37.7 19.5 V G96 – Mt. Lemmon Survey MPS 362537
2010 12 16.44479 05 42 06.48 +14 33 20.7 19.5 V G96 – Mt. Lemmon Survey MPS 362537
2010 12 16.44685 05 42 06.37 +14 33 21.0 19.6 V G96 – Mt. Lemmon Survey MPS 362537
2010 12 16.44895 05 42 06.26 +14 33 21.7 19.6 V G96 – Mt. Lemmon Survey MPS 362537
2010 12 16.45105 05 42 06.12 +14 33 21.9 19.4 V G96 – Mt. Lemmon Survey MPS 362537
2011 02 07.20700 05 09 13.75 +18 17 08.6 20.9 V G96 – Mt. Lemmon Survey MPS 371335
2011 02 07.21282 05 09 13.71 +18 17 10.2 21.1 V G96 – Mt. Lemmon Survey MPS 371335
2011 02 07.21857 05 09 13.68 +18 17 11.9 20.7 V G96 – Mt. Lemmon Survey MPS 371335
2011 02 07.22438 05 09 13.64 +18 17 13.4 21.2 V G96 – Mt. Lemmon Survey MPS 371335
2012 02 01.35153 11 18 21.27 +22 48 34.1 21.0 V 703 – Catalina Sky Survey MPS 411378
2012 02 01.35830 11 18 21.13 +22 48 38.8 20.9 V 703 – Catalina Sky Survey MPS 411378
2012 02 01.36343 11 18 21.09 +22 48 41.8 21.0 V 703 – Catalina Sky Survey MPS 411378
